Total_Precipitation_Accumulation
0.00 0.01 0.02 0.05 0.05 0.05 0.05 0.05 0.11 0.09 0.11 0.08 0.03 0.03 0.04 0.04 0.07 0.11 0.12 0.10 0.08 0.11 0.16 0.19 0.23 0.30 0.32 0.28 0.23 0.28 0.39 0.45 0.50 0.44 0.33 0.28 0.23 0.18 0.15 0.15 0.17 0.20 0.25 0.30
0.00 0.01 0.02 0.03 0.05 0.04 0.03 0.02 0.02 0.02 0.04 0.02 0.03 0.09 0.13 0.09 0.08 0.09 0.09 0.08 0.08 0.11 0.16 0.17 0.16 0.17 0.13 0.12 0.12 0.16 0.23 0.27 0.33 0.34 0.26 0.20 0.16 0.12 0.10 0.11 0.14 0.17 0.22 0.26
0.00 0.01 0.01 0.07 0.06 0.03 0.01 0.01 0.02 0.03 0.05 0.04 0.04 0.06 0.09 0.08 0.05 0.04 0.04 0.03 0.03 0.06 0.08 0.06 0.05 0.05 0.05 0.07 0.10 0.15 0.20 0.24 0.32 0.33 0.28 0.23 0.16 0.12 0.11 0.11 0.12 0.13 0.14 0.13
0.00 0.01 0.07 0.08 0.03 0.01 0.02 0.03 0.04 0.05 0.05 0.06 0.07 0.06 0.08 0.10 0.07 0.04 0.02 0.02 0.01 0.01 0.01 0.01 0.01 0.01 0.03 0.04 0.09 0.13 0.18 0.22 0.26 0.30 0.27 0.23 0.21 0.22 0.21 0.18 0.14 0.13 0.11 0.10
0.01 0.01 0.07 0.05 0.03 0.03 0.04 0.05 0.04 0.06 0.07 0.09 0.10 0.09 0.09 0.07 0.04 0.02 0.01 0.01 0.01 0.01 0.01 0.01 0.01 0.01 0.04 0.07 0.08 0.11 0.16 0.22 0.26 0.28 0.27 0.25 0.26 0.26 0.25 0.22 0.18 0.15 0.13 0.12
0.00 0.02 0.06 0.05 0.04 0.06 0.06 0.16 0.17 0.13 0.10 0.07 0.05 0.06 0.03 0.01 0.00 0.00 0.00 0.00 0.01 0.01 0.01 0.01 0.02 0.05 0.09 0.10 0.11 0.13 0.17 0.23 0.28 0.30 0.32 0.31 0.32 0.31 0.28 0.28 0.23 0.18 0.16 0.16
0.02 0.04 0.05 0.02 0.04 0.05 0.14 0.22 0.09 0.04 0.03 0.02 0.05 0.06 0.03 0.01 0.00 0.00 0.00 0.01 0.01 0.02 0.03 0.05 0.08 0.12 0.13 0.12 0.13 0.12 0.15 0.20 0.28 0.31 0.34 0.37 0.40 0.40 0.37 0.35 0.33 0.30 0.25 0.22
0.03 0.07 0.12 0.04 0.02 0.04 0.07 0.05 0.03 0.02 0.02 0.03 0.03 0.02 0.01 0.01 0.01 0.00 0.00 0.01 0.01 0.02 0.03 0.05 0.09 0.12 0.14 0.13 0.12 0.14 0.18 0.25 0.30 0.32 0.28 0.30 0.41 0.45 0.46 0.47 0.42 0.39 0.37 0.31
0.03 0.06 0.04 0.02 0.02 0.03 0.03 0.04 0.04 0.04 0.03 0.03 0.02 0.02 0.02 0.02 0.01 0.01 0.01 0.02 0.03 0.03 0.06 0.09 0.13 0.17 0.19 0.17 0.19 0.20 0.24 0.28 0.33 0.33 0.33 0.38 0.44 0.48 0.52 0.54 0.51 0.47 0.46 0.44
0.05 0.02 0.01 0.02 0.03 0.02 0.02 0.02 0.02 0.02 0.02 0.02 0.03 0.03 0.03 0.03 0.03 0.03 0.03 0.04 0.05 0.06 0.09 0.12 0.15 0.20 0.25 0.27 0.30 0.30 0.30 0.31 0.32 0.35 0.35 0.38 0.46 0.50 0.53 0.57 0.60 0.58 0.55 0.53
0.06 0.04 0.02 0.02 0.02 0.01 0.00 0.00 0.00 0.01 0.02 0.03 0.04 0.04 0.04 0.04 0.05 0.05 0.05 0.05 0.07 0.11 0.14 0.17 0.21 0.26 0.28 0.32 0.38 0.40 0.39 0.36 0.34 0.35 0.38 0.44 0.46 0.51 0.52 0.57 0.59 0.61 0.59 0.58
0.06 0.05 0.05 0.05 0.02 0.01 0.01 0.01 0.01 0.02 0.02 0.03 0.04 0.04 0.04 0.05 0.05 0.06 0.06 0.07 0.10 0.13 0.15 0.17 0.22 0.28 0.31 0.38 0.45 0.50 0.49 0.48 0.43 0.39 0.41 0.43 0.46 0.45 0.43 0.45 0.45 0.46 0.48 0.49
0.05 0.04 0.03 0.03 0.02 0.02 0.03 0.03 0.03 0.03 0.03 0.03 0.03 0.04 0.04 0.05 0.06 0.06 0.07 0.09 0.12 0.13 0.15 0.17 0.20 0.26 0.30 0.37 0.47 0.54 0.54 0.52 0.49 0.44 0.43 0.45 0.47 0.46 0.47 0.48 0.48 0.46 0.43 0.42
0.03 0.03 0.03 0.03 0.02 0.02 0.02 0.02 0.02 0.02 0.03 0.03 0.03 0.04 0.05 0.05 0.06 0.07 0.10 0.12 0.13 0.15 0.16 0.20 0.24 0.26 0.31 0.40 0.49 0.52 0.52 0.53 0.53 0.49 0.45 0.45 0.47 0.48 0.52 0.58 0.61 0.54 0.46 0.41
0.02 0.03 0.03 0.02 0.02 0.03 0.03 0.03 0.03 0.03 0.03 0.03 0.03 0.04 0.05 0.06 0.08 0.10 0.13 0.15 0.18 0.19 0.21 0.26 0.31 0.33 0.39 0.48 0.55 0.53 0.51 0.51 0.51 0.49 0.47 0.46 0.46 0.48 0.51 0.58 0.62 0.60 0.55 0.47
0.02 0.02 0.02 0.03 0.03 0.04 0.04 0.04 0.04 0.04 0.05 0.05 0.05 0.06 0.07 0.08 0.11 0.13 0.16 0.21 0.29 0.31 0.32 0.36 0.39 0.41 0.49 0.56 0.60 0.59 0.53 0.50 0.51 0.51 0.48 0.46 0.46 0.46 0.50 0.57 0.61 0.56 0.53 0.49
0.03 0.03 0.05 0.07 0.08 0.07 0.07 0.08 0.08 0.09 0.08 0.08 0.08 0.09 0.10 0.12 0.17 0.20 0.23 0.26 0.31 0.34 0.38 0.44 0.45 0.48 0.58 0.65 0.67 0.65 0.57 0.50 0.46 0.46 0.44 0.43 0.45 0.47 0.50 0.53 0.56 0.50 0.45 0.41
0.07 0.11 0.16 0.18 0.16 0.14 0.13 0.13 0.14 0.14 0.14 0.13 0.13 0.13 0.15 0.22 0.32 0.36 0.37 0.37 0.38 0.37 0.37 0.42 0.48 0.54 0.64 0.73 0.73 0.69 0.61 0.52 0.44 0.40 0.40 0.41 0.41 0.46 0.51 0.51 0.49 0.45 0.41 0.34
0.12 0.16 0.19 0.22 0.23 0.23 0.23 0.22 0.21 0.20 0.19 0.19 0.20 0.22 0.25 0.32 0.44 0.48 0.48 0.50 0.56 0.60 0.53 0.49 0.49 0.50 0.59 0.71 0.79 0.78 0.65 0.52 0.42 0.35 0.35 0.35 0.35 0.42 0.49 0.48 0.43 0.39 0.35 0.30
0.18 0.23 0.27 0.31 0.35 0.36 0.35 0.31 0.28 0.25 0.23 0.23 0.25 0.27 0.32 0.39 0.50 0.57 0.58 0.57 0.61 0.70 0.72 0.65 0.54 0.48 0.52 0.65 0.80 0.78 0.68 0.56 0.45 0.35 0.34 0.36 0.36 0.40 0.43 0.43 0.37 0.32 0.27 0.23
0.21 0.27 0.31 0.34 0.35 0.36 0.35 0.34 0.34 0.34 0.31 0.31 0.35 0.40 0.46 0.49 0.52 0.62 0.71 0.66 0.57 0.65 0.73 0.70 0.61 0.52 0.50 0.60 0.75 0.78 0.69 0.57 0.44 0.33 0.30 0.33 0.36 0.38 0.39 0.37 0.31 0.24 0.20 0.17
0.28 0.34 0.34 0.34 0.35 0.35 0.32 0.30 0.30 0.31 0.31 0.34 0.40 0.50 0.65 0.72 0.69 0.67 0.63 0.63 0.62 0.71 0.76 0.70 0.60 0.51 0.45 0.51 0.61 0.69 0.64 0.55 0.44 0.33 0.26 0.26 0.30 0.33 0.31 0.29 0.23 0.19 0.15 0.13
0.20 0.24 0.23 0.22 0.22 0.19 0.17 0.17 0.19 0.22 0.27 0.34 0.45 0.61 0.81 0.86 0.85 0.89 0.75 0.57 0.57 0.65 0.67 0.63 0.54 0.45 0.40 0.41 0.48 0.54 0.56 0.53 0.45 0.34 0.24 0.21 0.23 0.24 0.23 0.21 0.18 0.15 0.11 0.08
0.05 0.06 0.08 0.09 0.10 0.11 0.12 0.13 0.15 0.18 0.25 0.34 0.41 0.56 0.81 0.97 0.86 0.69 0.63 0.59 0.57 0.55 0.53 0.53 0.47 0.40 0.38 0.37 0.38 0.44 0.49 0.50 0.44 0.35 0.25 0.21 0.21 0.20 0.20 0.17 0.14 0.10 0.07 0.05
0.02 0.02 0.02 0.04 0.09 0.14 0.18 0.22 0.25 0.29 0.37 0.43 0.43 0.48 0.62 0.85 0.89 0.65 0.50 0.46 0.47 0.46 0.43 0.45 0.47 0.46 0.40 0.34 0.33 0.38 0.41 0.42 0.41 0.35 0.28 0.24 0.20 0.19 0.19 0.15 0.11 0.08 0.05 0.04
0.02 0.03 0.05 0.08 0.13 0.21 0.29 0.40 0.50 0.55 0.65 0.76 0.72 0.64 0.68 0.73 0.66 0.55 0.44 0.37 0.36 0.39 0.37 0.39 0.45 0.48 0.42 0.34 0.33 0.35 0.36 0.39 0.38 0.35 0.31 0.26 0.22 0.19 0.17 0.12 0.08 0.06 0.04 0.03
0.04 0.06 0.09 0.14 0.18 0.26 0.40 0.55 0.69 0.77 0.89 1.06 1.09 0.88 0.79 0.76 0.65 0.54 0.45 0.38 0.36 0.36 0.34 0.34 0.37 0.39 0.37 0.33 0.31 0.32 0.37 0.41 0.39 0.36 0.33 0.25 0.19 0.17 0.15 0.11 0.07 0.05 0.03 0.02